Time,TemperatureF,DewpointF,PressureIn,WindDirection,WindDirectionDegrees,WindSpeedMPH,WindSpeedGustMPH,Humidity,HourlyPrecipIn,Conditions,Clouds,dailyrainin,SoftwareType,DateUTC
2013-01-15 00:02:00,28.0,-5.0,-100.00,NE,52,16.0,24.0,23,-99.99,,,-99.99,,2013-01-15 08:02:00,
2013-01-15 00:12:00,27.0,-5.0,-100.00,NE,49,15.0,19.0,24,-99.99,,,-99.99,,2013-01-15 08:12:00,
2013-01-15 00:22:00,27.0,-4.0,-100.00,ENE,57,13.0,18.0,25,-99.99,,,-99.99,,2013-01-15 08:22:00,
2013-01-15 00:32:00,27.0,-5.0,-100.00,ENE,63,15.0,21.0,24,-99.99,,,-99.99,,2013-01-15 08:32:00,
2013-01-15 00:42:00,28.0,-5.0,-100.00,ENE,59,15.0,21.0,23,-99.99,,,-99.99,,2013-01-15 08:42:00,
2013-01-15 00:52:00,27.0,-6.0,-100.00,NE,56,17.0,23.0,23,-99.99,,,-99.99,,2013-01-15 08:52:00,
2013-01-15 01:02:00,27.0,-5.0,-100.00,NE,54,17.0,23.0,24,-99.99,,,-99.99,,2013-01-15 09:02:00,
2013-01-15 01:12:00,27.0,-5.0,-100.00,NE,50,15.0,20.0,24,-99.99,,,-99.99,,2013-01-15 09:12:00,
2013-01-15 01:22:00,27.0,-4.0,-100.00,NE,52,16.0,20.0,25,-99.99,,,-99.99,,2013-01-15 09:22:00,
2013-01-15 01:33:00,27.0,-4.0,-100.00,ENE,58,17.0,21.0,25,-99.99,,,-99.99,,2013-01-15 09:33:00,
2013-01-15 01:42:00,27.0,-4.0,-100.00,NE,53,19.0,25.0,25,-99.99,,,-99.99,,2013-01-15 09:42:00,
2013-01-15 01:52:00,27.0,-4.0,-100.00,NE,53,19.0,25.0,25,-99.99,,,-99.99,,2013-01-15 09:52:00,
2013-01-15 02:02:00,27.0,-3.0,-100.00,NE,55,20.0,27.0,26,-99.99,,,-99.99,,2013-01-15 10:02:00,
2013-01-15 02:11:00,27.0,-3.0,-100.00,NE,56,21.0,28.0,26,-99.99,,,-99.99,,2013-01-15 10:11:00,
2013-01-15 02:22:00,27.0,-3.0,-100.00,ENE,57,21.0,30.0,26,-99.99,,,-99.99,,2013-01-15 10:22:00,
2013-01-15 02:32:00,27.0,-3.0,-100.00,NE,55,19.0,26.0,26,-99.99,,,-99.99,,2013-01-15 10:32:00,
2013-01-15 02:42:00,27.0,-3.0,-100.00,NE,55,18.0,25.0,26,-99.99,,,-99.99,,2013-01-15 10:42:00,
2013-01-15 02:52:00,27.0,-3.0,-100.00,NE,55,18.0,25.0,26,-99.99,,,-99.99,,2013-01-15 10:52:00,
2013-01-15 03:02:00,27.0,-3.0,-100.00,NE,53,16.0,22.0,26,-99.99,,,-99.99,,2013-01-15 11:02:00,
2013-01-15 03:12:00,27.0,-2.0,-100.00,NE,54,14.0,22.0,27,-99.99,,,-99.99,,2013-01-15 11:12:00,
2013-01-15 03:22:00,27.0,-2.0,-100.00,NE,53,15.0,21.0,27,-99.99,,,-99.99,,2013-01-15 11:22:00,
2013-01-15 03:32:00,27.0,-2.0,-100.00,NE,54,14.0,18.0,27,-99.99,,,-99.99,,2013-01-15 11:32:00,
2013-01-15 03:42:00,27.0,-2.0,-100.00,NE,54,13.0,17.0,27,-99.99,,,-99.99,,2013-01-15 11:42:00,
2013-01-15 03:52:00,26.0,-3.0,-100.00,ENE,57,12.0,15.0,27,-99.99,,,-99.99,,2013-01-15 11:52:00,
2013-01-15 04:02:00,26.0,-3.0,-100.00,ENE,58,10.0,14.0,27,-99.99,,,-99.99,,2013-01-15 12:02:00,
2013-01-15 04:12:00,26.0,-3.0,-100.00,NE,54,9.0,12.0,27,-99.99,,,-99.99,,2013-01-15 12:12:00,
2013-01-15 04:22:00,26.0,-3.0,-100.00,NE,47,12.0,15.0,28,-99.99,,,-99.99,,2013-01-15 12:22:00,
2013-01-15 04:32:00,26.0,-3.0,-100.00,NE,45,13.0,17.0,28,-99.99,,,-99.99,,2013-01-15 12:32:00,
2013-01-15 04:42:00,26.0,-3.0,-100.00,NE,48,14.0,17.0,27,-99.99,,,-99.99,,2013-01-15 12:42:00,
2013-01-15 04:53:00,26.0,-3.0,-100.00,NE,49,14.0,21.0,27,-99.99,,,-99.99,,2013-01-15 12:53:00,
2013-01-15 05:02:00,27.0,-3.0,-100.00,NE,51,15.0,20.0,26,-99.99,,,-99.99,,2013-01-15 13:02:00,
2013-01-15 05:12:00,27.0,-3.0,-100.00,NE,48,14.0,20.0,26,-99.99,,,-99.99,,2013-01-15 13:12:00,
2013-01-15 05:22:00,27.0,-3.0,-100.00,NE,47,13.0,17.0,26,-99.99,,,-99.99,,2013-01-15 13:22:00,
2013-01-15 05:32:00,27.0,-2.0,-100.00,NE,48,14.0,18.0,27,-99.99,,,-99.99,,2013-01-15 13:32:00,
2013-01-15 05:42:00,27.0,-2.0,-100.00,NE,48,14.0,18.0,27,-99.99,,,-99.99,,2013-01-15 13:42:00,
2013-01-15 05:53:00,26.0,-3.0,-100.00,NE,49,14.0,18.0,27,-99.99,,,-99.99,,2013-01-15 13:53:00,
2013-01-15 06:02:00,26.0,-3.0,-100.00,NE,46,13.0,17.0,27,-99.99,,,-99.99,,2013-01-15 14:02:00,
2013-01-15 06:12:00,27.0,-2.0,-100.00,NE,47,12.0,17.0,27,-99.99,,,-99.99,,2013-01-15 14:12:00,
2013-01-15 06:22:00,27.0,-2.0,-100.00,NE,53,12.0,16.0,27,-99.99,,,-99.99,,2013-01-15 14:22:00,
2013-01-15 06:32:00,27.0,-2.0,-100.00,NE,45,12.0,15.0,27,-99.99,,,-99.99,,2013-01-15 14:32:00,
2013-01-15 06:42:00,27.0,-2.0,-100.00,NE,40,11.0,13.0,28,-99.99,,,-99.99,,2013-01-15 14:42:00,
2013-01-15 06:53:00,27.0,-2.0,-100.00,NE,38,10.0,13.0,28,-99.99,,,-99.99,,2013-01-15 14:53:00,
2013-01-15 07:02:00,27.0,-2.0,-100.00,NE,38,9.0,11.0,28,-99.99,,,-99.99,,2013-01-15 15:02:00,
2013-01-15 07:12:00,26.0,-3.0,-100.00,NE,37,12.0,15.0,28,-99.99,,,-99.99,,2013-01-15 15:12:00,
2013-01-15 07:23:00,26.0,-2.0,-100.00,NNE,30,11.0,14.0,29,-99.99,,,-99.99,,2013-01-15 15:23:00,
2013-01-15 07:33:00,27.0,-2.0,-100.00,NNE,33,12.0,15.0,27,-99.99,,,-99.99,,2013-01-15 15:33:00,
2013-01-15 07:43:00,27.0,-2.0,-100.00,NNE,33,12.0,15.0,27,-99.99,,,-99.99,,2013-01-15 15:43:00,
2013-01-15 07:52:00,28.0,-2.0,-100.00,NE,42,10.0,14.0,27,-99.99,,,-99.99,,2013-01-15 15:52:00,
2013-01-15 08:02:00,28.0,-2.0,-100.00,NE,42,10.0,14.0,27,-99.99,,,-99.99,,2013-01-15 16:02:00,
2013-01-15 08:12:00,29.0,-1.0,-100.00,NE,47,9.0,13.0,27,-99.99,,,-99.99,,2013-01-15 16:12:00,
2013-01-15 08:22:00,29.0,-1.0,-100.00,ENE,57,13.0,18.0,27,-99.99,,,-99.99,,2013-01-15 16:22:00,
2013-01-15 08:33:00,30.0,-1.0,-100.00,NE,55,15.0,20.0,26,-99.99,,,-99.99,,2013-01-15 16:33:00,
2013-01-15 08:42:00,31.0,0.0,-100.00,NE,49,13.0,19.0,26,-99.99,,,-99.99,,2013-01-15 16:42:00,
2013-01-15 08:53:00,32.0,0.0,-100.00,NE,53,13.0,20.0,25,-99.99,,,-99.99,,2013-01-15 16:53:00,
2013-01-15 09:03:00,32.0,0.0,-100.00,NE,53,13.0,20.0,25,-99.99,,,-99.99,,2013-01-15 17:03:00,
2013-01-15 09:12:00,32.0,0.0,-100.00,NE,41,15.0,22.0,25,-99.99,,,-99.99,,2013-01-15 17:12:00,
2013-01-15 09:22:00,32.0,0.0,-100.00,NE,49,15.0,21.0,25,-99.99,,,-99.99,,2013-01-15 17:22:00,
2013-01-15 09:33:00,32.0,-1.0,-100.00,NE,52,16.0,23.0,24,-99.99,,,-99.99,,2013-01-15 17:33:00,
2013-01-15 09:42:00,32.0,-1.0,-100.00,ENE,58,15.0,23.0,24,-99.99,,,-99.99,,2013-01-15 17:42:00,
2013-01-15 09:53:00,33.0,-1.0,-100.00,NE,55,17.0,23.0,23,-99.99,,,-99.99,,2013-01-15 17:53:00,
2013-01-15 10:02:00,33.0,-1.0,-100.00,NE,55,17.0,23.0,23,-99.99,,,-99.99,,2013-01-15 18:02:00,
2013-01-15 10:12:00,34.0,0.0,-100.00,ENE,65,16.0,23.0,23,-99.99,,,-99.99,,2013-01-15 18:12:00,
2013-01-15 10:22:00,34.0,0.0,-100.00,ENE,67,19.0,26.0,23,-99.99,,,-99.99,,2013-01-15 18:22:00,
2013-01-15 10:33:00,34.0,0.0,-100.00,ENE,64,18.0,26.0,23,-99.99,,,-99.99,,2013-01-15 18:33:00,
2013-01-15 10:42:00,34.0,1.0,-100.00,ENE,68,20.0,30.0,24,-99.99,,,-99.99,,2013-01-15 18:42:00,
2013-01-15 10:53:00,34.0,0.0,-100.00,ENE,72,19.0,26.0,23,-99.99,,,-99.99,,2013-01-15 18:53:00,
2013-01-15 11:03:00,34.0,1.0,-100.00,ENE,68,18.0,27.0,24,-99.99,,,-99.99,,2013-01-15 19:03:00,
2013-01-15 11:12:00,35.0,2.0,-100.00,ENE,58,18.0,25.0,24,-99.99,,,-99.99,,2013-01-15 19:12:00,
2013-01-15 11:22:00,35.0,2.0,-100.00,ENE,60,18.0,27.0,24,-99.99,,,-99.99,,2013-01-15 19:22:00,
2013-01-15 11:33:00,34.0,1.0,-100.00,ENE,59,21.0,30.0,24,-99.99,,,-99.99,,2013-01-15 19:33:00,
2013-01-15 11:42:00,34.0,1.0,-100.00,NE,52,19.0,26.0,24,-99.99,,,-99.99,,2013-01-15 19:42:00,
2013-01-15 11:52:00,35.0,2.0,-100.00,ENE,61,17.0,23.0,24,-99.99,,,-99.99,,2013-01-15 19:52:00,
2013-01-15 12:02:00,35.0,2.0,-100.00,ENE,61,17.0,23.0,24,-99.99,,,-99.99,,2013-01-15 20:02:00,
2013-01-15 12:12:00,35.0,2.0,-100.00,NE,45,17.0,26.0,24,-99.99,,,-99.99,,2013-01-15 20:12:00,
2013-01-15 12:22:00,35.0,2.0,-100.00,NE,45,19.0,28.0,24,-99.99,,,-99.99,,2013-01-15 20:22:00,
2013-01-15 12:33:00,36.0,3.0,-100.00,NE,43,16.0,24.0,24,-99.99,,,-99.99,,2013-01-15 20:33:00,
2013-01-15 12:43:00,35.0,2.0,-100.00,NE,40,17.0,26.0,24,-99.99,,,-99.99,,2013-01-15 20:43:00,
2013-01-15 12:52:00,36.0,3.0,-100.00,NE,45,18.0,26.0,24,-99.99,,,-99.99,,2013-01-15 20:52:00,
2013-01-15 13:02:00,36.0,3.0,-100.00,NE,52,17.0,26.0,24,-99.99,,,-99.99,,2013-01-15 21:02:00,
2013-01-15 13:12:00,37.0,4.0,-100.00,NE,49,15.0,21.0,24,-99.99,,,-99.99,,2013-01-15 21:12:00,
2013-01-15 13:22:00,36.0,3.0,-100.00,NE,42,15.0,25.0,24,-99.99,,,-99.99,,2013-01-15 21:22:00,
2013-01-15 13:33:00,37.0,4.0,-100.00,NE,51,15.0,22.0,24,-99.99,,,-99.99,,2013-01-15 21:33:00,
2013-01-15 13:42:00,36.0,4.0,-100.00,NE,48,19.0,28.0,25,-99.99,,,-99.99,,2013-01-15 21:42:00,
2013-01-15 13:52:00,36.0,3.0,-100.00,NE,45,18.0,26.0,24,-99.99,,,-99.99,,2013-01-15 21:52:00,
2013-01-15 14:02:00,36.0,4.0,-100.00,NE,55,19.0,25.0,25,-99.99,,,-99.99,,2013-01-15 22:02:00,
2013-01-15 14:12:00,36.0,3.0,-100.00,NE,53,17.0,23.0,24,-99.99,,,-99.99,,2013-01-15 22:12:00,
2013-01-15 14:22:00,37.0,4.0,-100.00,NE,54,15.0,24.0,24,-99.99,,,-99.99,,2013-01-15 22:22:00,
2013-01-15 14:32:00,36.0,3.0,-100.00,NE,50,16.0,22.0,24,-99.99,,,-99.99,,2013-01-15 22:32:00,
2013-01-15 14:42:00,36.0,3.0,-100.00,ENE,57,15.0,22.0,24,-99.99,,,-99.99,,2013-01-15 22:42:00,
2013-01-15 14:52:00,36.0,3.0,-100.00,NE,54,15.0,20.0,24,-99.99,,,-99.99,,2013-01-15 22:52:00,
2013-01-15 15:02:00,36.0,3.0,-100.00,ENE,57,14.0,21.0,24,-99.99,,,-99.99,,2013-01-15 23:02:00,
2013-01-15 15:12:00,37.0,4.0,-100.00,NE,56,14.0,18.0,24,-99.99,,,-99.99,,2013-01-15 23:12:00,
2013-01-15 15:22:00,37.0,4.0,-100.00,NE,49,15.0,21.0,24,-99.99,,,-99.99,,2013-01-15 23:22:00,
2013-01-15 15:32:00,37.0,4.0,-100.00,NE,52,15.0,21.0,24,-99.99,,,-99.99,,2013-01-15 23:32:00,
2013-01-15 15:42:00,36.0,4.0,-100.00,NE,53,15.0,20.0,25,-99.99,,,-99.99,,2013-01-15 23:42:00,
2013-01-15 15:53:00,36.0,3.0,-100.00,NNE,33,13.0,19.0,24,-99.99,,,-99.99,,2013-01-15 23:53:00,
2013-01-15 16:02:00,36.0,4.0,-100.00,NNE,33,15.0,20.0,25,-99.99,,,-99.99,,2013-01-16 00:02:00,
2013-01-15 16:12:00,36.0,4.0,-100.00,NE,35,13.0,19.0,25,-99.99,,,-99.99,,2013-01-16 00:12:00,
2013-01-15 16:22:00,36.0,4.0,-100.00,NE,35,15.0,20.0,25,-99.99,,,-99.99,,2013-01-16 00:22:00,
2013-01-15 16:32:00,36.0,4.0,-100.00,NE,40,14.0,19.0,25,-99.99,,,-99.99,,2013-01-16 00:32:00,
2013-01-15 16:42:00,36.0,4.0,-100.00,NE,44,14.0,18.0,26,-99.99,,,-99.99,,2013-01-16 00:42:00,
2013-01-15 16:52:00,36.0,4.0,-100.00,NE,49,14.0,19.0,26,-99.99,,,-99.99,,2013-01-16 00:52:00,
2013-01-15 17:02:00,35.0,4.0,-100.00,NE,53,15.0,21.0,27,-99.99,,,-99.99,,2013-01-16 01:02:00,
2013-01-15 17:12:00,35.0,4.0,-100.00,ENE,57,16.0,22.0,27,-99.99,,,-99.99,,2013-01-16 01:12:00,
2013-01-15 17:22:00,35.0,4.0,-100.00,NE,50,17.0,22.0,27,-99.99,,,-99.99,,2013-01-16 01:22:00,
2013-01-15 17:32:00,35.0,5.0,-100.00,NE,46,15.0,21.0,28,-99.99,,,-99.99,,2013-01-16 01:32:00,
2013-01-15 17:42:00,34.0,4.0,-100.00,NE,44,16.0,22.0,28,-99.99,,,-99.99,,2013-01-16 01:42:00,
2013-01-15 17:52:00,34.0,4.0,-100.00,NE,41,16.0,21.0,28,-99.99,,,-99.99,,2013-01-16 01:52:00,
2013-01-15 18:02:00,34.0,4.0,-100.00,NE,42,14.0,17.0,28,-99.99,,,-99.99,,2013-01-16 02:02:00,
2013-01-15 18:12:00,34.0,4.0,-100.00,NE,46,16.0,22.0,28,-99.99,,,-99.99,,2013-01-16 02:12:00,
2013-01-15 18:22:00,34.0,4.0,-100.00,NE,45,16.0,22.0,28,-99.99,,,-99.99,,2013-01-16 02:22:00,
2013-01-15 18:32:00,33.0,4.0,-100.00,NE,47,14.0,20.0,29,-99.99,,,-99.99,,2013-01-16 02:32:00,
2013-01-15 18:42:00,33.0,4.0,-100.00,NE,51,15.0,20.0,29,-99.99,,,-99.99,,2013-01-16 02:42:00,
2013-01-15 18:52:00,34.0,4.0,-100.00,NE,46,16.0,20.0,28,-99.99,,,-99.99,,2013-01-16 02:52:00,
2013-01-15 19:02:00,33.0,4.0,-100.00,NE,46,16.0,20.0,29,-99.99,,,-99.99,,2013-01-16 03:02:00,
2013-01-15 19:11:00,33.0,4.0,-100.00,NE,47,15.0,20.0,29,-99.99,,,-99.99,,2013-01-16 03:11:00,
2013-01-15 19:22:00,33.0,4.0,-100.00,NE,40,15.0,19.0,29,-99.99,,,-99.99,,2013-01-16 03:22:00,
2013-01-15 19:32:00,33.0,4.0,-100.00,NE,35,16.0,20.0,29,-99.99,,,-99.99,,2013-01-16 03:32:00,
2013-01-15 19:42:00,33.0,4.0,-100.00,NNE,30,17.0,20.0,29,-99.99,,,-99.99,,2013-01-16 03:42:00,
2013-01-15 19:52:00,33.0,4.0,-100.00,NE,39,17.0,21.0,29,-99.99,,,-99.99,,2013-01-16 03:52:00,
2013-01-15 20:02:00,33.0,4.0,-100.00,NE,39,17.0,21.0,29,-99.99,,,-99.99,,2013-01-16 04:02:00,
2013-01-15 20:12:00,33.0,4.0,-100.00,NE,38,18.0,23.0,29,-99.99,,,-99.99,,2013-01-16 04:12:00,
2013-01-15 20:22:00,33.0,5.0,-100.00,NE,38,17.0,22.0,30,-99.99,,,-99.99,,2013-01-16 04:22:00,
2013-01-15 20:32:00,33.0,5.0,-100.00,NE,38,18.0,22.0,30,-99.99,,,-99.99,,2013-01-16 04:32:00,
2013-01-15 20:42:00,33.0,5.0,-100.00,NE,38,19.0,23.0,30,-99.99,,,-99.99,,2013-01-16 04:42:00,
2013-01-15 20:52:00,34.0,6.0,-100.00,NE,37,19.0,25.0,30,-99.99,,,-99.99,,2013-01-16 04:52:00,
2013-01-15 21:03:00,34.0,6.0,-100.00,NE,41,18.0,24.0,30,-99.99,,,-99.99,,2013-01-16 05:03:00,
2013-01-15 21:12:00,34.0,6.0,-100.00,NE,45,20.0,25.0,30,-99.99,,,-99.99,,2013-01-16 05:12:00,
2013-01-15 21:22:00,34.0,5.0,-100.00,NE,44,21.0,26.0,29,-99.99,,,-99.99,,2013-01-16 05:22:00,
2013-01-15 21:32:00,34.0,5.0,-100.00,NE,41,20.0,25.0,29,-99.99,,,-99.99,,2013-01-16 05:32:00,
2013-01-15 21:42:00,34.0,5.0,-100.00,NE,39,17.0,26.0,29,-99.99,,,-99.99,,2013-01-16 05:42:00,
2013-01-15 21:52:00,34.0,5.0,-100.00,NE,40,14.0,19.0,29,-99.99,,,-99.99,,2013-01-16 05:52:00,
2013-01-15 22:02:00,34.0,5.0,-100.00,NNE,31,12.0,16.0,29,-99.99,,,-99.99,,2013-01-16 06:02:00,
2013-01-15 22:11:00,34.0,5.0,-100.00,NNE,29,13.0,17.0,29,-99.99,,,-99.99,,2013-01-16 06:11:00,
2013-01-15 22:22:00,34.0,5.0,-100.00,NNE,33,14.0,19.0,29,-99.99,,,-99.99,,2013-01-16 06:22:00,
2013-01-15 22:32:00,34.0,5.0,-100.00,NE,37,15.0,18.0,29,-99.99,,,-99.99,,2013-01-16 06:32:00,
2013-01-15 22:42:00,34.0,5.0,-100.00,NE,38,15.0,19.0,29,-99.99,,,-99.99,,2013-01-16 06:42:00,
2013-01-15 22:52:00,34.0,6.0,-100.00,NE,43,16.0,19.0,30,-99.99,,,-99.99,,2013-01-16 06:52:00,
2013-01-15 23:02:00,34.0,6.0,-100.00,NE,44,19.0,26.0,30,-99.99,,,-99.99,,2013-01-16 07:02:00,
2013-01-15 23:11:00,35.0,6.0,-100.00,NE,45,22.0,33.0,29,-99.99,,,-99.99,,2013-01-16 07:11:00,
2013-01-15 23:22:00,35.0,7.0,-100.00,NE,51,21.0,29.0,30,-99.99,,,-99.99,,2013-01-16 07:22:00,
2013-01-15 23:32:00,35.0,7.0,-100.00,NE,53,19.0,27.0,30,-99.99,,,-99.99,,2013-01-16 07:32:00,
2013-01-15 23:42:00,36.0,8.0,-100.00,NE,49,15.0,23.0,30,-99.99,,,-99.99,,2013-01-16 07:42:00,
2013-01-15 23:52:00,36.0,8.0,-100.00,ENE,57,14.0,21.0,30,-99.99,,,-99.99,,2013-01-16 07:52:00,